Debrecen, Hungary

2:42 PM CET on December 16, 2017 (GMT +0100)
Debrecen

Weather History for LHDC - October, 2011

Change the Weather History Date:

Monday, October 17, 2011

  Actual Average Record
Temperature  
Mean Temperature 38 °F -  
Max Temperature 50 °F 54 °F - ()
Min Temperature 26 °F 37 °F - ()
Degree Days  
Heating Degree Days 27    
Moisture  
Dew Point 23 °F    
Average Humidity 56    
Maximum Humidity 80    
Minimum Humidity 21    
Precipitation  
Precipitation 0.00 in 0.05 in - ()
Sea Level Pressure  
Sea Level Pressure 30.37 in    
Wind  
Wind Speed 7 mph ()    
Max Wind Speed 10 mph    
Max Gust Speed -    
Visibility 17.5 miles    
Events      
T = Trace of Precipitation, MM = Missing Value Source: Averaged Metar Reports

Daily Weather History Graph

Daily Weather History Graph

Search for Another Location

Airport or City:

Trip Planner

Search our weather history database for the weather conditions in past years. The results will help you decide how hot, cold, wet, or windy it might be!

Date:

Astronomy

Oct. 17, 2011 Rise Set
Actual Time 6:54 AM CEST 5:42 PM CEST
Civil Twilight 6:23 AM CEST 6:13 PM CEST
Nautical Twilight 5:47 AM CEST 6:49 PM CEST
Astronomical Twilight 5:12 AM CEST 7:25 PM CEST
Moon 8:48 PM CEST (10/17) 12:04 PM CEST (10/17)
Length of Visible Light 11h 50m
Length of Day
10h 48m
Waning Gibbous, 76% of the Moon is Illuminated
Oct 17
Waning Gibbous
Oct 20
Last Quarter
Oct 26
New
Nov 2
First Quarter
Nov 10
Full

Hourly Weather History & Observations

Time (CEST) Temp. Windchill Dew Point Humidity Pressure Visibility Wind Dir Wind Speed Gust Speed Precip Events Conditions
12:45 AM 32.0 °F 24.2 °F 24.8 °F 75% 30.45 in - ENE 9.2 mph - N/A   Clear
1:45 AM 28.4 °F 20.4 °F 23.0 °F 80% 30.45 in - ENE 8.1 mph - N/A   Clear
2:00 AM 29 °F - 23 °F 71% 30.46 in 19 mi ENE 8.9 mph - -   Partly Cloudy
2:45 AM 28.4 °F 22.2 °F 23.0 °F 80% 30.42 in - NE 5.8 mph - N/A   Clear
3:45 AM 28.4 °F 21.2 °F 23.0 °F 80% 30.42 in - NE 6.9 mph - N/A   Clear
4:45 AM 28.4 °F 20.4 °F 23.0 °F 80% 30.42 in - NE 8.1 mph - N/A   Clear
5:45 AM 26.6 °F 18.2 °F 21.2 °F 80% 30.42 in - ENE 8.1 mph - N/A   Clear
6:15 AM 26.6 °F 18.2 °F 21.2 °F 80% 30.42 in - NE 8.1 mph - N/A   Clear
6:45 AM 26.6 °F 17.5 °F 21.2 °F 80% 30.42 in - ENE 9.2 mph - N/A   Clear
7:00 AM - - - N/A% - - NE 9.2 mph - N/A   Clear
7:15 AM 26.6 °F 18.2 °F 21.2 °F 80% 30.42 in - ENE 8.1 mph - N/A   Clear
7:45 AM 30.2 °F 22.6 °F 23.0 °F 75% 30.42 in - ENE 8.1 mph - N/A   Clear
8:00 AM 30 °F - 23 °F 66% 30.43 in 31 mi ENE 6.7 mph - -   Partly Cloudy
8:15 AM 32.0 °F 25.6 °F 24.8 °F 75% 30.42 in - ENE 6.9 mph - N/A   Clear
8:45 AM 35.6 °F 29.9 °F 24.8 °F 65% 30.42 in - ENE 6.9 mph - N/A   Clear
9:15 AM 39.2 °F 34.2 °F 26.6 °F 61% 30.42 in - East 6.9 mph - N/A   Clear
9:45 AM 41.0 °F 35.8 °F 24.8 °F 53% 30.42 in - East 8.1 mph - N/A   Clear
10:00 AM - - - N/A% - - ENE 8.1 mph - N/A   Clear
10:15 AM 44.6 °F 40.2 °F 24.8 °F 46% 30.42 in - East 8.1 mph - N/A   Clear
10:45 AM 44.6 °F 39.7 °F 23.0 °F 43% 30.42 in - East 9.2 mph - N/A   Clear
11:15 AM 46.4 °F 41.9 °F 23.0 °F 40% 30.39 in - East 9.2 mph - N/A   Clear
11:45 AM 46.4 °F 41.9 °F 23.0 °F 40% 30.39 in - East 9.2 mph - N/A   Clear
12:15 PM 48.2 °F - 21.2 °F 34% 30.39 in - ENE 9.2 mph - N/A   Clear
12:45 PM 48.2 °F - 23.0 °F 37% 30.39 in - East 9.2 mph - N/A   Clear
1:00 PM - - - N/A% - - NE 5.8 mph - N/A   Clear
1:15 PM 48.2 °F - 21.2 °F 34% 30.36 in - East 8.1 mph - N/A   Clear
1:45 PM 48.2 °F - 21.2 °F 34% 30.36 in - East 8.1 mph - N/A   Clear
2:00 PM 49 °F - 22 °F 21% 30.36 in 31 mi East 8.9 mph - -   Partly Cloudy
2:15 PM 50.0 °F - 21.2 °F 32% 30.36 in - ENE 6.9 mph - N/A   Clear
2:45 PM 50.0 °F - 21.2 °F 32% 30.33 in - ENE 10.4 mph - N/A   Clear
3:15 PM 50.0 °F - 21.2 °F 32% 30.33 in - ENE 6.9 mph - N/A   Clear
3:45 PM 50.0 °F - 21.2 °F 32% 30.33 in - ENE 5.8 mph - N/A   Clear
4:15 PM 50.0 °F - 21.2 °F 32% 30.30 in - ENE 6.9 mph - N/A   Clear
4:45 PM 48.2 °F - 21.2 °F 34% 30.30 in - ENE 6.9 mph - N/A   Clear
5:15 PM 46.4 °F 42.9 °F 23.0 °F 40% 30.30 in - ENE 6.9 mph - N/A   Clear
5:45 PM 44.6 °F 42.2 °F 21.2 °F 39% 30.30 in - ENE 4.6 mph - N/A   Clear
6:15 PM 44.6 °F - 23.0 °F 43% 30.30 in - ENE 1.2 mph - N/A   Clear
6:45 PM 42.8 °F - 23.0 °F 46% 30.30 in - NE 2.3 mph - N/A   Clear
7:15 PM 39.2 °F 37.0 °F 23.0 °F 52% 30.30 in - ENE 3.5 mph - N/A   Clear
7:45 PM 39.2 °F 37.0 °F 24.8 °F 56% 30.30 in - NE 3.5 mph - N/A   Clear
8:00 PM 39 °F - 25 °F 45% 30.32 in 16 mi NE 2.2 mph - -   Partly Cloudy
8:15 PM 35.6 °F - 24.8 °F 65% 30.30 in - NE 2.3 mph - N/A   Clear
8:45 PM 35.6 °F - 24.8 °F 65% 30.30 in - NNE 2.3 mph - N/A   Clear
9:15 PM 35.6 °F - 24.8 °F 65% 30.30 in - NNE 2.3 mph - N/A   Clear
9:45 PM 33.8 °F 30.8 °F 24.8 °F 70% 30.30 in - NNE 3.5 mph - N/A   Clear
10:45 PM 32.0 °F - 26.6 °F 80% 30.27 in - NNE 2.3 mph - N/A   Clear
11:45 PM 32.0 °F - 24.8 °F 75% 30.27 in - North 2.3 mph - N/A   Clear